Location: Vancouver
(49.2500°N, 123.1330°W)
Time: 19:28:00
(UTC-07:00)

Daily predictions for brighter satellites

Satellite Brightness Start Highest point End
(mag) Time Altitude Azimuth Time Altitude Azimuth Time Altitude Azimuth
Cosmos 1782 3.2 21:42:10 10° N 21:46:06 49° ENE 21:49:58 10° SSE
SAR-Lupe-4 3.8 21:42:53 10° S 21:46:28 74° WSW 21:50:04 10° NNW
Lacrosse 4 Rocket 2.5 21:43:12 10° NNW 21:47:29 39° NE 21:51:41 10° ESE
NOSS 3-2 (A) 3.5 21:41:50 10° SW 21:47:55 83° SE 21:54:43 10° NE
Resurs 01 Rocket 4.2 21:44:54 10° SW 21:48:07 20° W 21:51:22 10° NW
SPOT 1/Viking Rocket 4.2 21:44:10 10° SE 21:49:00 41° ENE 21:53:53 10° N
GEOS 3 Rocket 4.2 21:44:26 10° ESE 21:49:27 52° NE 21:54:34 10° NW
YAOGAN 6 3.6 21:47:43 10° S 21:51:19 47° W 21:54:54 10° NNW
ATLAS 5 CENTAUR R/B 2.6 21:47:07 10° NW 21:52:53 65° NE 21:59:14 10° SE
Cosmos 1269 Rocket 4.3 21:52:38 10° NNW 21:57:53 58° ENE 22:03:03 10° SE
USA 215 3.6 21:51:56 10° SE 21:58:23 60° SW 22:04:54 10° WNW
H-2A R/B 4.0 21:58:16 10° E 22:00:46 16° ENE 22:03:19 10° NNE
Cosmos 1898 Rocket 4.5 21:55:38 10° SW 22:00:49 54° WNW 22:06:05 10° NNE
Meteor 2-3 Rocket 4.0 21:56:47 10° SSW 22:02:31 77° WNW 22:08:13 10° N
MetOp-B 4.2 22:00:01 10° SSE 22:05:24 86° WSW 22:10:48 10° NNW
Cosmos 990 Rocket 4.3 22:01:19 10° SSW 22:06:31 72° WNW 22:11:47 10° NNE
ISS -2.6 22:04:36 10° SSW 22:07:13 22° SE 22:09:51 10° E
NOSS 3-2 (C) 3.5 22:01:16 10° SW 22:07:22 85° SE 22:14:12 10° NE
Cosmos 1862 4.3 22:04:58 11° SSE 22:08:18 29° E 22:11:45 10° NNE
Cosmos 1125 Rocket 3.8 22:06:01 10° S 22:10:59 45° ESE 22:15:57 10° NE
Cosmos 2279 Rocket 4.0 22:05:08 10° N 22:11:27 81° E 22:17:42 10° SSE
Aureole 3 2.5 22:09:11 10° S 22:12:12 74° E 22:15:12 10° NNE
ARGOS 3.2 22:07:16 10° SSE 22:12:39 89° WSW 22:18:03 10° NNW
Landsat 7 4.4 22:08:37 12° SE 22:12:49 44° ENE 22:17:20 10° N
Cosmos 1825 2.2 22:13:31 10° S 22:17:14 59° E 22:20:59 10° NNE
Cosmos 1408 2.6 22:15:40 10° S 22:19:21 68° E 22:23:05 10° NNE
Cosmos 1867 4.4 22:14:16 10° NNW 22:19:30 44° NE 22:24:30 11° ESE
Aureole 1 4.4 22:17:13 10° SSW 22:20:16 81° WNW 22:23:55 10° NNE
Tiangong 2 3.5 22:22:05 10° SW 22:23:22 12° SSW 22:24:35 10° S
SL-08 RB Rocket 3.8 22:19:16 10° SSE 22:23:57 85° WSW 22:28:39 10° NNW
Okean 1-7 3.7 22:20:10 10° NNW 22:24:30 56° W 22:28:48 10° S
Terra 2.4 22:24:15 15° SE 22:27:57 43° ENE 22:32:28 10° N
CENTAUR R/B 2.7 22:22:44 10° SSW 22:28:35 49° ESE 22:35:14 10° NE
H-2A R/B 2.2 22:24:58 11° SSE 22:30:09 88° ENE 22:35:31 10° NNW
Cosmos 2227 Rocket 4.2 22:26:17 10° N 22:30:17 19° NE 22:34:16 10° E
Gbstr 26 Del rocket 3.5 22:25:44 10° W 22:30:31 62° N 22:34:32 10° E
IGS 5A 4.2 22:27:39 16° SE 22:30:35 40° ENE 22:34:30 10° N
COSMOS 2455 2.8 22:25:40 10° SSW 22:31:41 86° SE 22:37:45 10° NE
SPOT 5 3.4 22:28:42 10° S 22:34:02 69° WSW 22:39:20 10° NNW
Cosmos 2219 4.1 22:28:43 10° NNW 22:34:07 40° NE 22:38:45 14° ESE
Cosmos 1346 4.2 22:42:18 10° NNE 22:44:39 26° ENE 22:45:27 22° ESE
Cosmos 494 Rocket 4.3 22:40:00 10° NNW 22:45:10 55° ENE 22:48:46 19° SE
Cosmos 1733 Rocket 3.1 22:44:04 16° S 22:47:23 59° E 22:51:40 10° NNE
Lacrosse 5 rocket 1.1 22:43:54 10° SW 22:47:23 52° SE 22:51:01 10° ENE
DNEPR-1 R/B 3.7 22:43:34 10° SSW 22:48:32 59° SE 22:52:53 10° NE
Cosmos 1340 3.4 22:46:09 10° NNW 22:49:50 49° W 22:52:55 14° S
Cosmos 405 Rocket 4.4 22:48:32 10° NNE 22:51:25 21° ENE 22:53:04 16° ESE
Cosmos 2263 4.3 22:49:01 10° SSW 22:54:48 87° WNW 23:00:35 10° NNE
Cosmos 1943 Rocket 2.1 22:51:10 10° SSW 22:56:45 81° ESE 23:02:20 10° NNE
Cosmos 1606 4.4 22:54:09 10° NNW 22:57:26 28° W 23:00:42 10° SSW
Milstar 3 4.5 22:53:30 10° SSW 22:58:02 15° S 22:58:49 15° S
BREEZE-M DEB (TANK) 3.8 22:59:06 10° W 23:02:37 53° SSW 23:13:36 14° SE
Alouette 2 Rocket 4.4 22:55:44 10° S 23:03:30 76° ESE 23:08:27 10° NNE
CZ-4B R/B 4.5 23:00:45 10° NE 23:05:04 28° E 23:06:56 22° SE
Nimbus 7 Rocket 4.4 22:59:28 10° NNE 23:05:26 86° WNW 23:11:18 10° SSW
Cosmos 1975 Rocket 4.1 23:01:35 10° N 23:05:39 34° ENE 23:07:48 22° ESE
DMSP B5D2-2 4.0 23:04:30 10° NNE 23:09:45 85° ESE 23:14:20 14° SSW
Cosmos 2369 Rocket 3.1 23:05:55 10° SW 23:11:27 52° NW 23:17:02 10° NNE
Cosmos 2026 Rocket 4.5 23:10:05 22° SSE 23:13:38 44° E 23:19:30 10° NNE
Cosmos 2344 3.6 23:08:24 10° SSW 23:15:58 69° SE 23:24:45 10° NE
CARTOSAT-1 3.8 23:16:32 23° S 23:19:07 64° WSW 23:23:26 10° NNW
Meteor 2-20 4.4 23:14:40 17° S 23:19:29 80° E 23:25:38 10° NNE
Cosmos 1674 Rocket 3.9 23:15:34 10° NNW 23:19:51 60° W 23:22:26 23° S
Meteor 2-20 Rocket 4.5 23:15:42 21° S 23:19:52 65° E 23:25:56 10° NNE
Cosmos 1378 Rocket 3.5 23:17:33 10° N 23:22:01 82° E 23:24:12 30° SSE
Cosmos 2251 Rocket 3.5 23:19:53 10° NNW 23:25:10 87° WSW 23:28:00 28° SSE
Cosmos 2297 Rocket 3.5 23:20:47 10° NNW 23:25:51 32° NE 23:30:03 14° ESE
Lacrosse 4 Rocket 2.8 23:22:07 10° NW 23:26:08 32° WSW 23:28:23 20° SSW
GEOS 3 Rocket 4.4 23:24:47 22° S 23:27:36 40° WSW 23:32:31 10° NW
H-2A R/B 2.1 23:34:31 31° S 23:36:20 64° WSW 23:40:27 10° NNW
Cosmos 1092 Rocket 4.0 23:31:55 18° SSW 23:36:43 82° W 23:42:54 10° N
ATLAS 5 CENTAUR R/B 3.5 23:32:08 10° WNW 23:37:26 33° WSW 23:40:57 20° SSW
Nadezhda 4 Rocket 4.5 23:33:29 10° SSW 23:39:36 58° WNW 23:45:41 10° N
ATLAS CENTAUR R/B 2.4 23:42:07 27° ESE 23:42:07 27° ESE 23:44:52 10° ENE
ISS -3.9 23:40:09 10° WSW 23:43:24 88° NW 23:46:41 10° ENE
Cosmos 1627 Rocket 4.5 23:39:40 25° S 23:43:35 79° E 23:49:57 10° NNE
Cosmos 1553 Rocket 4.2 23:40:56 10° N 23:47:19 65° ENE 23:50:37 29° SSE
SL-19 R/B 4.5 23:43:08 10° NNE 23:49:06 85° WNW 23:53:41 19° SSW
Cosmos 1437 4.2 23:46:26 10° NNW 23:49:17 30° W 23:50:12 25° SW
Meteor 1-20 Rocket 4.4 23:47:17 30° SSE 23:50:02 60° E 23:55:38 10° NNE
DELTA 2 DEB (DPAF) 4.1 23:49:05 37° S 23:50:51 82° WSW 23:55:21 10° NNW
Meteor 1-25 Rocket 4.3 23:48:01 30° S 23:50:57 67° E 23:56:46 10° NNE
PSLV R/B 3.5 23:50:49 44° WSW 23:50:58 45° W 23:53:40 10° NNW
ARGOS Delta rocket 3.6 23:50:32 10° NNE 23:55:10 80° ESE 23:56:53 37° S
